Change the Weather History Date:

Wednesday, September 5, 2012

  Actual Average Record
Temperature  
Mean Temperature 72 °F -  
Max Temperature 78 °F 76 °F 92 °F (1954)
Min Temperature 64 °F 55 °F 41 °F (1928)
Cooling Degree Days 6    
Growing Degree Days 22 (Base 50)    
Moisture  
Dew Point 65 °F    
Average Humidity 85    
Maximum Humidity 96    
Minimum Humidity 51    
Precipitation  
Precipitation 0.03 in - - ()
Sea Level Pressure  
Sea Level Pressure 29.87 in    
Wind  
Wind Speed 1 mph (NNW)    
Max Wind Speed 7 mph    
Max Gust Speed -    
Visibility 9 miles    
Events Rain , Thunderstorm    
Averages and records for this station are not official NWS values.
T = Trace of Precipitation, MM = Missing Value Source: NWS Daily Summary

Daily Weather History Graph

Daily Weather History Graph

Search for Another Location

Airport or City:

Trip Planner

Search our weather history database for the weather conditions in past years. The results will help you decide how hot, cold, wet, or windy it might be!

Date:

Astronomy

Sep. 05, 2012 Rise Set
Actual Time 6:42 AM EDT 7:36 PM EDT
Civil Twilight 6:14 AM EDT 8:04 PM EDT
Nautical Twilight 5:41 AM EDT 8:37 PM EDT
Astronomical Twilight 5:06 AM EDT 9:11 PM EDT
Moon 10:02 PM EDT (9/5) 11:47 AM EDT (9/5)
Length of Visible Light 13h 49m
Length of Day
12h 53m
Waning Gibbous, 76% of the Moon is Illuminated
Sep 5
Waning Gibbous
Sep 8
Last Quarter
Sep 15
New
Sep 22
First Quarter
Sep 29
Full

Hourly Weather History & Observations

Time (EDT) Temp. Dew Point Humidity Pressure Visibility Wind Dir Wind Speed Gust Speed Precip Events Conditions
12:15 AM 70.7 °F 68.4 °F 92% 29.84 in 10.0 mi Calm Calm - N/A   Scattered Clouds
12:35 AM 70.0 °F 68.5 °F 95% 29.84 in 10.0 mi South 3.5 mph - N/A Thunderstorm Scattered Clouds
12:55 AM 70.7 °F 69.1 °F 95% 29.83 in 10.0 mi Calm Calm - N/A   Mostly Cloudy
1:15 AM 70.7 °F 69.1 °F 95% 29.84 in 10.0 mi Calm Calm - N/A   Overcast
1:35 AM 70.7 °F 69.1 °F 95% 29.83 in 10.0 mi Calm Calm - N/A   Overcast
1:55 AM 70.7 °F 69.3 °F 95% 29.84 in 10.0 mi Calm Calm - N/A Thunderstorm Overcast
2:15 AM 70.9 °F 69.3 °F 95% 29.83 in 10.0 mi Calm Calm - N/A Thunderstorm Overcast
2:55 AM 70.0 °F 68.7 °F 96% 29.83 in 5.0 mi Calm Calm - N/A   Mostly Cloudy
3:15 AM 69.8 °F 68.7 °F 96% 29.83 in 3.0 mi SW 3.5 mph - N/A   Mostly Cloudy
3:35 AM 70.2 °F 69.1 °F 96% 29.83 in 7.0 mi Calm Calm - N/A   Overcast
3:55 AM 70.3 °F 69.1 °F 96% 29.83 in 7.0 mi Calm Calm - 0.01 in Rain Rain
4:15 AM 70.2 °F 68.9 °F 96% 29.83 in 3.0 mi Calm Calm - 0.01 in   Drizzle
4:35 AM 70.2 °F 68.9 °F 96% 29.83 in 10.0 mi Calm Calm - 0.02 in   Overcast
4:55 AM 70.2 °F 68.9 °F 96% 29.83 in 10.0 mi Calm Calm - N/A   Overcast
5:15 AM 70.7 °F 68.9 °F 94% 29.84 in 10.0 mi Calm Calm - N/A   Overcast
5:35 AM 70.3 °F 68.9 °F 95% 29.85 in 7.0 mi Calm Calm - N/A   Overcast
5:53 AM 69.8 °F 68.0 °F 94% 29.85 in 5.0 mi Calm Calm - N/A   Drizzle
6:53 AM 69.8 °F 68.0 °F 94% 29.86 in 5.0 mi North 4.6 mph - N/A Rain Light Rain
7:53 AM 68.0 °F 66.2 °F 94% 29.88 in 7.0 mi NE 4.6 mph - N/A   Overcast
8:53 AM 69.8 °F 64.4 °F 83% 29.89 in 7.0 mi NNE 4.6 mph - N/A   Overcast
9:53 AM 69.8 °F 64.4 °F 83% 29.91 in 10.0 mi North 4.6 mph - N/A   Overcast
10:53 AM 69.8 °F 62.6 °F 78% 29.92 in 10.0 mi NNE 4.6 mph - N/A   Overcast
11:53 AM 71.6 °F 62.6 °F 73% 29.92 in 10.0 mi Calm Calm - N/A   Overcast
12:53 PM 71.6 °F 62.6 °F 73% 29.92 in 10.0 mi Calm Calm - N/A   Overcast
1:53 PM 73.4 °F 62.6 °F 69% 29.91 in 10.0 mi West 6.9 mph - N/A   Overcast
2:53 PM 75.2 °F 62.6 °F 65% 29.88 in 10.0 mi West 4.6 mph - N/A   Mostly Cloudy
3:53 PM 77.0 °F 60.8 °F 57% 29.87 in 10.0 mi NNW 5.8 mph - N/A   Scattered Clouds
4:53 PM 77.0 °F 60.8 °F 57% 29.86 in 10.0 mi WNW 5.8 mph - N/A   Clear
5:53 PM 78.8 °F 59.0 °F 51% 29.88 in 10.0 mi Calm Calm - N/A   Clear
6:53 PM 75.2 °F 62.6 °F 65% 29.88 in 10.0 mi Calm Calm - N/A   Clear
8:53 PM 69.8 °F 62.6 °F 78% 29.89 in 10.0 mi Calm Calm - N/A   Clear
9:15 PM 68.9 °F 62.4 °F 80% 29.90 in 10.0 mi Calm Calm - N/A   Scattered Clouds
9:55 PM 68.2 °F 62.4 °F 82% 29.89 in 10.0 mi Calm Calm - N/A   Clear
10:15 PM 66.7 °F 62.1 °F 85% 29.89 in 10.0 mi Calm Calm - N/A   Clear
10:35 PM 67.5 °F 62.1 °F 83% 29.89 in 10.0 mi Calm Calm - N/A   Clear
10:55 PM 66.9 °F 62.1 °F 84% 29.89 in 10.0 mi Calm Calm - N/A   Clear
11:15 PM 65.7 °F 62.1 °F 88% 29.90 in 10.0 mi Calm Calm - N/A   Clear
11:35 PM 65.7 °F 62.6 °F 90% 29.90 in 10.0 mi Calm Calm - N/A   Clear
11:55 PM 64.6 °F 61.9 °F 91% 29.89 in 10.0 mi Calm Calm - N/A   Clear